Theta_e
308 309 309 310 310 311 311 309 311 311 310 309 308 308 307 305 303 301 298 296 294 291 289 287 286 286 286 285 285 285 285 286 286 286 286 286 286 286 285 285 284 285 285 287
311 310 310 311 312 310 310 309 309 309 309 308 308 307 307 305 303 301 298 295 293 291 289 287 286 285 285 284 284 285 285 285 285 285 285 285 285 285 284 284 284 284 284 285
307 310 311 312 312 312 312 309 309 311 311 311 311 308 307 305 302 300 297 294 292 290 287 286 285 284 284 284 283 284 284 284 285 285 285 285 284 284 283 283 283 283 284 284
306 307 307 308 307 309 310 311 311 310 310 308 308 305 304 303 301 297 294 292 290 287 286 284 283 283 283 283 283 284 284 284 284 284 284 284 284 283 283 283 282 283 283 283
306 305 305 306 308 308 310 311 310 311 311 305 301 300 296 298 297 294 291 289 286 285 283 283 282 282 282 282 283 283 283 284 284 283 283 283 283 283 282 282 282 282 283 283
306 307 305 308 304 304 307 309 305 307 307 302 302 307 300 292 291 290 288 286 285 283 282 282 281 281 282 282 282 283 283 283 283 283 283 283 282 282 281 281 281 281 281 281
306 305 304 307 304 303 308 308 305 305 303 302 304 301 293 290 289 287 285 284 283 282 281 281 281 281 281 282 282 282 283 283 282 282 282 282 282 281 280 280 280 280 281 280
306 306 307 304 304 306 305 302 303 302 300 296 293 291 290 288 286 285 283 282 281 281 281 280 280 281 281 281 281 281 282 282 282 281 282 281 281 280 280 279 279 279 280 279
307 307 304 303 304 302 302 301 299 297 294 293 291 290 288 286 285 283 281 281 280 281 281 280 280 280 281 280 280 281 282 281 281 281 281 281 280 280 279 279 278 278 278 278
305 305 303 301 299 299 299 299 296 294 292 292 290 288 286 284 283 281 281 280 280 280 280 280 280 280 279 280 280 281 281 281 280 280 280 279 280 279 278 277 277 277 277 277
304 302 301 299 298 296 295 294 293 292 291 289 288 286 284 283 282 280 280 279 279 279 279 279 279 279 279 279 279 279 279 279 279 278 278 278 278 278 278 277 276 276 276 276
307 304 304 300 296 295 294 293 291 290 288 287 286 284 283 282 280 280 279 279 278 278 278 278 278 278 278 278 278 278 278 278 277 277 277 276 276 276 276 276 275 275 275 275
305 302 301 298 296 295 293 291 289 288 286 284 283 282 281 280 279 278 277 277 276 276 276 277 277 277 276 277 277 277 276 276 276 276 275 275 275 275 275 274 274 273 273 273
299 298 298 297 296 292 290 288 286 285 284 283 282 281 280 278 276 274 273 274 275 276 276 277 277 275 276 276 276 275 275 274 274 274 274 274 274 274 273 273 273 272 271 271
299 299 298 293 291 289 287 286 285 284 283 282 281 279 278 277 276 274 274 275 275 276 276 276 274 274 275 275 275 274 274 274 274 273 273 273 272 272 272 271 271 271 270 269
296 294 293 292 290 288 287 287 285 283 282 281 280 279 278 277 276 275 274 275 276 273 274 275 274 274 274 275 275 274 274 273 272 273 272 272 272 271 271 270 270 270 269 268
294 294 291 290 290 288 288 286 285 283 282 281 280 278 278 276 274 273 273 274 274 274 274 275 275 275 275 274 274 274 273 273 272 272 271 271 271 270 270 270 269 269 269 267
296 293 292 290 289 288 287 285 283 282 281 280 278 277 275 274 273 272 273 273 274 274 274 274 274 274 274 274 273 273 273 272 271 271 270 269 269 269 269 269 268 268 268 268
294 292 290 289 288 286 285 283 282 280 278 276 275 274 274 273 272 272 273 273 274 274 273 273 273 273 273 273 272 272 271 271 270 270 269 269 269 268 268 268 268 267 267 267
290 289 288 286 285 284 281 279 278 276 276 275 274 272 271 272 272 272 273 272 272 272 272 272 272 272 272 272 272 271 270 270 269 269 268 268 268 268 268 267 267 267 267 267
287 286 284 282 279 279 278 278 276 275 274 274 273 272 272 272 272 272 272 273 271 272 272 272 271 271 271 271 271 270 270 269 268 268 267 267 267 267 267 267 266 266 266 266
283 281 279 278 278 275 276 277 276 274 273 273 273 273 272 271 271 271 272 272 271 271 271 271 271 270 270 270 270 269 269 268 268 267 267 266 266 266 266 266 265 265 265 265
279 278 277 276 276 274 275 276 275 275 273 273 273 272 272 271 271 272 272 271 271 271 271 270 270 269 269 269 268 268 268 267 267 266 266 266 265 265 265 264 265 264 264 264
277 276 274 274 274 273 272 272 274 274 275 274 274 274 273 271 271 272 272 271 271 271 270 270 269 269 269 268 268 268 268 267 267 267 266 266 265 265 264 264 264 263 263 262
275 274 274 274 275 275 272 272 273 273 274 273 274 274 273 273 273 272 271 271 271 270 270 270 269 269 269 269 269 268 268 267 267 267 266 266 265 265 264 264 264 263 263 262
276 276 276 276 276 274 272 272 274 272 273 272 272 273 273 273 273 272 272 271 271 271 270 270 270 270 269 269 269 269 268 268 267 267 266 266 266 265 265 264 264 263 263 262
275 275 275 274 274 273 273 274 273 273 273 273 273 273 273 273 273 272 272 272 272 272 271 271 270 270 270 270 269 269 269 268 267 267 267 266 265 265 264 264 263 263 262 262
Wind_Speed
16 16 13 15 15 17 12 17 11 19 19 23 14 15 16 14 12 14 13 10 7 5 2 3 7 10 13 13 14 15 14 16 17 19 20 23 24 27 27 25 26 26 27 28
11 12 10 17 19 17 19 18 19 21 21 19 5 10 14 17 17 15 13 10 8 6 3 6 9 11 12 13 16 14 15 15 17 20 21 24 26 27 27 26 27 27 27 28
10 3 6 9 19 17 14 15 12 14 17 15 11 10 15 15 17 17 14 11 8 6 4 6 9 11 13 13 13 15 15 17 19 21 22 24 25 26 26 27 28 28 28 30
9 7 11 7 4 7 12 16 18 18 17 6 2 5 4 9 14 15 14 11 8 5 3 6 8 11 13 12 12 15 17 19 20 21 21 23 25 24 25 26 26 27 30 31
7 10 14 17 10 8 8 10 12 17 14 5 12 9 9 10 14 16 14 13 11 7 4 5 9 11 12 13 14 16 18 20 21 21 22 23 26 24 24 27 27 28 28 30
5 6 8 4 2 2 6 9 3 5 9 15 13 8 5 11 16 15 18 14 10 7 5 8 10 9 11 13 16 18 20 21 20 19 20 21 25 24 24 25 25 27 29 29
13 11 10 8 5 1 7 3 2 2 9 16 7 1 17 15 14 18 16 12 9 9 9 8 8 10 10 14 18 19 19 18 17 18 19 20 21 24 24 26 26 27 28 29
9 10 14 2 4 8 1 3 4 9 10 11 15 18 17 16 14 15 13 11 9 9 8 8 9 10 14 16 17 18 18 17 18 18 21 21 20 25 25 26 26 28 29 29
7 5 1 2 3 5 3 6 6 11 13 18 18 17 15 13 12 12 12 11 10 9 8 10 12 14 14 16 17 17 17 18 18 19 19 21 24 22 25 27 27 27 27 29
2 4 2 3 4 1 4 9 11 15 16 17 20 16 15 12 10 12 11 11 9 9 11 12 12 14 14 15 16 15 15 17 18 18 21 22 20 24 25 27 27 27 28 28
5 2 4 5 4 8 13 17 18 15 15 17 19 15 14 12 12 12 11 11 10 10 10 11 11 13 15 16 16 14 14 16 19 19 20 21 22 22 23 24 27 29 29 29
5 8 4 6 11 14 16 16 17 19 17 14 17 15 17 12 13 12 12 10 10 8 8 10 14 14 13 13 14 15 17 18 18 18 19 20 21 22 20 22 24 28 30 31
5 10 4 16 14 13 14 15 16 16 17 17 17 20 18 17 14 13 12 10 9 9 11 12 12 13 12 13 14 16 17 16 16 17 18 19 20 22 23 25 23 26 31 32
15 15 9 12 8 11 16 20 22 21 20 19 21 19 19 19 16 14 13 12 13 13 14 13 14 14 15 15 16 18 15 18 16 16 17 18 20 20 21 23 25 28 30 32
17 1 12 17 15 15 21 22 18 15 15 16 17 19 19 18 15 12 12 13 13 14 14 12 10 11 13 14 15 17 15 15 15 16 17 18 19 20 21 23 24 25 29 33
12 16 19 20 18 17 17 16 17 15 13 17 17 17 17 17 15 12 10 8 9 10 11 13 12 10 9 12 13 13 13 17 16 16 17 18 19 21 22 23 23 24 27 30
16 10 14 17 18 18 16 14 14 14 19 18 18 20 19 17 15 12 13 13 13 12 11 11 10 10 9 11 12 11 11 13 15 16 18 18 18 20 20 21 22 23 24 29
9 14 15 20 19 17 15 17 20 21 19 21 21 20 19 17 15 16 14 13 13 12 10 9 8 8 10 10 10 10 11 12 14 15 16 17 17 17 19 20 21 22 23 26
16 17 18 19 20 19 19 20 20 20 23 26 25 20 22 22 18 16 14 13 12 10 7 7 7 8 9 9 9 10 11 12 13 14 14 15 17 17 18 19 20 21 22 24
14 20 23 22 21 24 20 19 25 23 24 27 26 24 21 20 17 17 15 11 9 7 6 6 6 8 8 8 8 9 11 12 13 12 15 15 16 16 17 18 19 20 21 22
14 19 19 19 18 19 21 27 27 22 25 29 26 23 23 21 17 17 14 10 8 8 7 7 7 8 8 7 7 9 10 11 11 12 12 13 14 15 15 16 17 19 20 21
14 13 17 20 19 18 22 23 25 28 27 27 25 26 26 19 16 11 9 9 10 9 8 8 8 8 7 6 8 8 9 10 10 10 11 12 13 13 13 14 16 17 18 19
15 17 19 19 20 21 24 24 28 31 30 29 29 26 20 17 14 12 9 11 11 9 8 8 7 7 7 8 9 9 9 10 11 12 12 13 13 13 12 13 14 16 17 18
18 17 17 22 27 22 16 20 25 26 28 27 26 23 21 17 14 10 7 12 10 9 8 8 7 6 6 7 7 7 8 8 8 9 10 11 13 13 12 13 14 15 16 17
17 18 20 21 17 14 18 22 23 22 22 20 23 19 17 15 8 14 15 12 10 9 8 7 6 4 2 3 3 4 6 8 8 8 9 10 12 13 13 14 17 19 19 19
18 16 16 15 15 19 20 21 18 18 18 17 18 20 18 15 7 15 17 13 11 8 6 6 4 2 1 1 2 4 4 6 8 9 9 10 11 13 15 17 20 22 23 23
13 16 15 12 12 17 19 20 21 19 20 20 18 22 19 15 12 16 16 14 11 9 8 7 5 4 4 4 5 6 6 6 7 9 10 11 12 14 16 19 21 23 24 24
Wind_Direction
260 257 260 269 266 278 251 247 242 258 250 259 202 198 201 194 175 170 170 163 156 151 119 344 351 360 356 347 344 343 348 347 345 343 341 345 341 342 342 340 338 331 329 332
270 265 255 263 251 249 253 257 251 254 262 253 157 184 188 186 178 178 166 156 148 133 78 357 2 358 350 349 345 343 346 349 346 346 346 347 346 343 341 340 340 336 334 333
271 344 295 259 246 248 241 242 237 234 249 272 269 200 198 189 176 165 157 151 136 98 58 6 357 345 350 349 348 348 349 347 349 350 348 348 346 342 340 340 341 340 338 337
274 297 266 254 250 238 242 253 254 263 262 283 209 74 113 164 154 142 135 127 108 101 38 13 2 351 345 348 6 353 353 349 348 348 348 347 348 346 342 343 342 343 341 342
244 255 277 291 255 190 185 260 255 236 254 165 125 97 60 113 128 123 122 120 123 106 56 20 15 0 351 360 3 2 351 348 348 350 348 350 351 345 345 346 345 345 346 342
214 244 256 240 232 202 148 267 224 211 184 162 158 183 148 132 121 116 118 119 117 95 65 38 16 6 10 9 5 359 352 347 347 351 352 351 353 351 348 348 347 347 346 343
229 238 263 253 183 134 208 252 102 165 164 166 176 4 137 127 111 110 107 107 98 80 61 34 15 20 25 15 7 354 350 348 352 355 354 352 350 356 354 354 352 350 348 349
222 226 246 113 141 206 128 28 119 125 132 114 117 121 123 118 113 103 100 90 81 77 60 37 30 30 30 17 360 355 353 357 358 359 2 0 0 4 1 2 359 356 353 351
217 218 54 343 294 303 175 139 156 131 132 130 129 126 120 114 111 103 98 91 77 75 66 46 38 33 27 6 358 354 358 3 4 6 4 8 11 6 5 6 6 360 357 354
220 188 219 78 32 349 135 121 119 126 136 138 129 126 119 117 114 106 97 89 84 73 57 46 39 37 29 12 5 2 5 7 7 7 7 11 8 13 13 11 8 5 3 359
241 152 84 63 137 129 116 117 120 126 133 131 126 126 127 121 115 110 101 89 76 68 58 48 44 42 31 19 9 11 14 13 13 13 10 8 14 12 15 16 16 10 10 5
245 190 160 161 152 139 132 133 130 128 124 122 126 125 123 115 110 106 98 90 80 74 72 56 49 40 30 22 19 22 23 20 17 15 14 14 10 7 16 15 15 17 15 15
214 155 145 139 140 136 125 130 124 120 123 122 119 121 117 114 111 106 100 99 92 81 69 63 60 47 32 26 30 35 33 26 23 22 18 15 14 12 3 3 13 15 15 14
126 111 116 147 141 127 128 121 112 112 117 120 121 119 118 114 110 110 110 105 97 89 78 72 67 50 39 38 38 41 38 36 34 29 25 23 21 18 15 9 3 2 7 11
163 137 146 120 120 127 126 127 121 122 124 123 125 125 125 124 125 118 115 113 103 87 74 68 59 40 35 42 45 47 42 35 33 31 29 28 25 23 20 17 15 12 7 7
125 126 131 133 140 139 139 136 128 135 135 134 132 132 133 131 123 119 123 128 110 89 75 65 57 47 37 43 48 45 42 38 38 33 29 28 26 24 22 20 19 18 16 10
129 138 134 141 148 152 152 144 139 145 145 144 141 141 137 131 128 124 118 115 108 95 79 68 61 54 58 50 49 46 44 38 40 38 35 30 28 26 25 23 22 20 17 12
155 149 156 152 150 145 143 142 147 149 150 148 146 144 143 148 142 135 130 125 113 100 85 72 63 59 55 50 50 50 49 45 41 39 35 33 31 27 26 25 22 20 16 14
135 142 144 144 147 140 141 146 147 141 142 149 148 150 155 148 141 141 140 135 124 106 82 81 70 64 59 51 53 55 54 53 46 39 35 33 33 31 28 24 22 21 18 17
120 131 134 132 137 140 132 135 137 138 149 154 152 146 146 149 150 148 149 132 126 117 111 97 83 74 65 59 56 58 57 55 49 42 37 35 32 29 27 25 23 21 19 19
133 133 131 128 121 129 136 145 143 144 156 159 151 152 152 153 157 156 148 139 141 132 123 111 95 80 70 63 61 61 57 53 47 39 34 31 28 26 24 22 22 20 18 17
133 130 126 130 131 124 141 145 150 153 156 160 158 154 153 153 159 167 165 149 147 140 135 120 102 85 74 75 76 68 60 54 47 37 31 27 24 20 19 18 17 15 13 12
127 131 129 135 137 138 151 158 161 162 161 163 161 163 162 161 162 155 158 162 150 146 138 128 113 97 87 86 80 69 57 49 46 41 34 30 27 25 23 18 12 7 6 6
122 125 126 137 139 135 140 161 164 167 168 169 171 171 166 159 170 172 156 157 157 153 146 135 125 110 97 89 77 59 43 34 31 29 25 21 20 19 15 12 7 4 0 0
126 128 133 139 144 149 151 159 159 161 166 169 173 174 174 171 165 183 171 163 161 166 158 149 143 132 110 75 53 32 19 16 13 7 3 3 4 7 7 3 1 357 354 352
140 145 152 156 158 157 158 160 159 162 163 167 178 178 177 177 176 172 172 174 174 177 181 180 180 186 225 313 331 340 342 352 353 350 347 347 347 348 348 349 348 349 348 347
125 138 140 137 156 163 167 168 163 170 174 175 177 184 185 186 182 178 182 187 195 201 209 218 227 240 266 300 310 311 305 316 330 337 333 332 334 336 338 339 340 340 340 341